HST,Max TemperatureF,Mean TemperatureF,Min TemperatureF,Max Dew PointF,MeanDew PointF,Min DewpointF,Max Humidity, Mean Humidity, Min Humidity, Max Sea Level PressureIn, Mean Sea Level PressureIn, Min Sea Level PressureIn, Max VisibilityMiles, Mean VisibilityMiles, Min VisibilityMiles, Max Wind SpeedMPH, Mean Wind SpeedMPH, Max Gust SpeedMPH,PrecipitationIn, CloudCover, Events, WindDirDegrees
2013-12-1,83,77,70,71,69,66,97,78,58,30.03,29.99,29.94,10,10,7,18,7,23,0.02,5,Rain,179
2013-12-2,77,72,66,72,69,65,100,87,74,30.04,29.99,29.93,10,8,2,13,5,16,0.45,7,Rain,219
2013-12-3,82,73,64,69,66,62,100,81,62,30.01,29.97,29.90,10,9,2,13,7,16,0.12,6,Rain,213
2013-12-4,82,73,63,66,62,55,100,79,57,30.01,29.97,29.91,10,10,10,14,7,18,0.00,4,,204
2013-12-5,80,73,66,71,67,60,100,87,74,30.03,29.99,29.93,10,9,2,12,6,14,0.10,5,Rain,200
2013-12-6,81,73,64,69,64,57,97,80,62,30.02,29.98,29.92,10,10,7,13,6,16,0.01,3,Rain,197
2013-12-7,82,74,65,72,68,62,93,79,65,30.01,29.96,29.91,10,10,2,18,7,24,0.08,5,Rain,180
2013-12-8,77,74,70,73,71,68,100,90,79,30.08,30.01,29.96,10,10,10,14,5,20,0.13,6,Rain,181
2013-12-9,84,77,69,75,71,68,100,85,69,30.10,30.05,30.00,10,10,6,15,6,20,0.04,5,Rain,198
2013-12-10,82,75,67,72,68,65,100,81,62,30.10,30.05,29.97,10,9,2,16,6,20,0.21,5,Rain,248
2013-12-11,81,74,66,68,64,57,93,74,54,30.08,30.03,29.97,10,10,10,15,7,19,T,3,,198
2013-12-12,81,73,65,70,65,57,93,81,68,30.11,30.04,29.97,10,10,10,16,8,21,T,4,,187
2013-12-13,79,72,65,71,66,59,100,82,64,30.11,30.06,30.00,10,8,2,14,6,17,0.23,7,Rain,230
2013-12-14,80,72,64,70,65,60,100,77,54,30.06,30.00,29.94,10,10,4,16,7,20,0.05,6,Rain,211
2013-12-15,80,72,63,69,62,52,97,75,53,29.97,29.93,29.91,10,10,10,13,6,15,0.00,3,,187
2013-12-16,81,72,63,70,65,55,93,78,62,30.00,29.95,29.90,10,10,10,15,7,19,T,3,,279
2013-12-17,81,72,63,68,62,55,93,78,62,30.04,29.99,29.95,10,10,10,13,7,16,0.00,3,,310
2013-12-18,80,72,63,66,61,53,93,75,57,30.06,30.02,29.98,10,10,10,15,7,22,0.02,3,Rain,224
2013-12-19,81,73,64,70,64,56,100,81,62,30.10,30.04,30.00,10,8,1,23,7,28,1.14,6,Rain-Thunderstorm,215
2013-12-20,81,73,65,71,68,64,100,87,74,30.08,30.03,29.97,10,9,2,15,6,19,0.52,6,Rain,216
2013-12-21,80,73,66,69,67,62,100,84,67,30.02,30.00,29.94,10,9,2,13,6,17,0.28,4,Rain,208
2013-12-22,82,72,62,70,64,54,100,77,54,30.01,29.97,29.89,10,10,4,22,7,29,0.04,4,Rain,192
2013-12-23,81,74,66,70,67,64,100,81,62,30.07,30.02,29.97,10,10,2,16,5,20,0.30,6,Rain,264
2013-12-24,81,73,64,70,67,63,100,81,62,30.08,30.04,29.99,10,9,2,14,6,17,0.33,6,Rain,277
2013-12-25,77,70,63,72,68,60,100,90,79,30.07,30.00,29.96,10,9,2,15,7,19,0.52,5,Rain,349
2013-12-26,79,72,64,71,67,61,100,85,69,30.02,29.97,29.92,10,10,6,16,8,22,0.14,5,Rain,334
2013-12-27,77,72,66,72,69,63,100,91,81,29.99,29.92,29.87,10,6,1,16,7,21,1.30,7,Rain,329
2013-12-28,79,73,66,73,70,66,100,87,74,29.98,29.91,29.85,10,7,2,14,5,17,2.64,6,Rain,217
2013-12-29,78,71,63,73,70,62,100,91,82,29.98,29.93,29.88,10,9,1,18,7,24,1.45,7,Rain-Thunderstorm,359
2013-12-30,77,72,67,72,70,67,100,91,82,30.02,29.95,29.89,10,4,0,22,9,26,7.51,8,Fog-Rain-Thunderstorm,9
2013-12-31,80,74,67,71,70,67,100,87,74,30.02,29.96,29.91,10,7,1,17,5,22,1.80,6,Rain,314